FW6216 Weather Reports


Display with metric or nautical units.
time (UTC)temp
F
wind
direction
speed
MPH
gust
MPH
rain 1hr
in
rain 24hr
in
rain mn
in
humidity
%
barometer
mb
20260508214607 69 3 8.0 14.0 0.00 0.00 0.00 36 1020.5
20260508213034 69 12 8.0 15.0 0.00 0.00 0.00 36 1020.5
20260508210030 68 33 4.0 11.0 0.00 0.00 0.00 37 1020.5
20260508204535 68 57 6.0 13.0 0.00 0.00 0.00 37 1020.6
20260508203031 68 45 6.0 12.0 0.00 0.00 0.00 40 1020.7
20260508200030 67 61 6.0 12.0 0.00 0.00 0.00 42 1020.8
20260508193028 63 65 7.0 14.0 0.00 0.00 0.00 48 1020.8
20260508191529 63 67 8.0 14.0 0.00 0.00 0.00 49 1020.7
20260508190030 64 53 7.0 12.0 0.00 0.00 0.00 50 1020.7
20260508184534 61 53 5.0 13.0 0.00 0.00 0.00 56 1020.6
20260508183030 59 38 6.0 10.0 0.00 0.00 0.00 57 1020.5
20260508181538 59 43 4.0 11.0 0.00 0.00 0.00 56 1020.7
20260508180034 59 42 5.0 9.0 0.00 0.00 0.00 55 1020.3
20260508174531 60 54 5.0 9.0 0.00 0.00 0.00 54 1020.1
20260508173107 61 27 4.0 8.0 0.00 0.00 0.00 53 1020.0
20260508171619 62 46 4.0 10.0 0.00 0.00 0.00 52 1020.0
20260508170035 62 63 4.0 9.0 0.00 0.00 0.00 50 1020.1
20260508164535 64 58 3.0 8.0 0.00 0.00 0.00 49 1020.1
20260508163031 62 30 3.0 8.0 0.00 0.00 0.00 52 1020.2
20260508161531 60 51 3.0 7.0 0.00 0.00 0.00 55 1020.3
20260508160034 58 51 3.0 8.0 0.00 0.00 0.00 57 1020.2
20260508154532 58 42 3.0 7.0 0.00 0.00 0.00 59 1020.1
20260508153152 57 52 1.0 5.0 0.00 0.00 0.00 61 1020.1
20260508151534 52 204 0.0 3.0 0.00 0.00 0.00 67 1020.0
20260508150030 50 242 0.0 2.0 0.00 0.00 0.00 68 1019.8
20260508143108 46 210 0.0 2.0 0.00 0.00 0.00 69 1019.4
20260508140031 44 223 2.0 6.0 0.00 0.00 0.00 68 1019.4
20260508134530 44 243 3.0 6.0 0.00 0.00 0.00 69 1019.2
20260508133111 43 200 2.0 5.0 0.00 0.00 0.00 70 1019.1
20260508131610 42 215 3.0 4.0 0.00 0.00 0.00 70 1019.0
20260508130109 41 185 2.0 4.0 0.00 0.00 0.00 70 1018.9
20260508124610 41 247 0.0 4.0 0.00 0.00 0.00 70 1018.7
20260508123151 41 225 0.0 2.0 0.00 0.00 0.00 69 1018.7
20260508121531 41 179 0.0 3.0 0.00 0.00 0.00 69 1018.8
20260508120036 41 237 0.0 4.0 0.00 0.00 0.00 67 1018.8
20260508114531 41 266 0.0 4.0 0.00 0.00 0.00 66 1018.7
20260508113031 42 270 0.0 3.0 0.00 0.00 0.00 66 1018.7
20260508111532 41 220 1.0 5.0 0.00 0.00 0.00 66 1018.6
20260508104534 42 224 0.0 4.0 0.00 0.00 0.00 64 1018.6
20260508103031 42 228 1.0 4.0 0.00 0.00 0.00 62 1018.6
20260508094610 42 181 3.0 6.0 0.00 0.00 0.00 61 1018.6
20260508093033 43 229 3.0 7.0 0.00 0.00 0.00 59 1018.6
20260508090030 43 206 1.0 3.0 0.00 0.00 0.00 58 1018.4
20260508084532 44 211 3.0 5.0 0.00 0.00 0.00 57 1018.4
20260508083108 44 231 4.0 6.0 0.00 0.00 0.00 56 1018.4
20260508081529 44 217 2.0 7.0 0.00 0.00 0.00 55 1018.4
20260508080031 44 206 2.0 5.0 0.00 0.00 0.00 55 1018.5
20260508074535 43 224 3.0 4.0 0.00 0.00 0.00 56 1018.5
20260508073038 43 244 1.0 4.0 0.00 0.00 0.00 54 1018.3
20260508070035 45 240 3.0 5.0 0.00 0.00 0.00 51 1018.3
20260508064606 46 221 2.0 5.0 0.00 0.00 0.00 50 1018.3
20260508063030 47 226 1.0 3.0 0.00 0.00 0.00 47 1018.3
20260508061531 49 215 2.0 4.0 0.00 0.00 0.00 45 1018.3
20260508060110 49 173 3.0 5.0 0.00 0.00 0.00 43 1018.3
20260508054654 50 166 3.0 5.0 0.00 0.00 0.00 42 1018.2
20260508053031 52 199 1.0 4.0 0.00 0.00 0.00 40 1018.2
20260508051534 52 198 0.0 3.0 0.00 0.00 0.00 40 1018.1
20260508050034 52 228 1.0 5.0 0.00 0.00 0.00 39 1018.0
20260508044531 53 228 1.0 3.0 0.00 0.00 0.00 39 1017.9
20260508043031 54 234 0.0 4.0 0.00 0.00 0.00 38 1017.8
20260508040030 56 106 4.0 9.0 0.00 0.00 0.00 36 1017.4
20260508034609 57 104 5.0 10.0 0.00 0.00 0.00 35 1017.2
20260508033029 58 106 3.0 8.0 0.00 0.00 0.00 34 1017.1
20260508031533 60 91 5.0 7.0 0.00 0.00 0.00 33 1017.0
20260508030037 61 78 4.0 7.0 0.00 0.00 0.00 31 1016.9
20260508024534 63 71 7.0 12.0 0.00 0.00 0.00 30 1016.7
20260508023150 64 67 7.0 13.0 0.00 0.00 0.00 30 1016.6
20260508021700 65 64 8.0 12.0 0.00 0.00 0.00 30 1016.6
20260508020034 66 37 5.0 11.0 0.00 0.00 0.00 30 1016.7
20260508014641 66 37 6.0 11.0 0.00 0.00 0.00 30 1016.7
20260508013110 69 347 6.0 11.0 0.00 0.00 0.00 30 1016.6
20260508011530 70 329 7.0 13.0 0.00 0.00 0.00 29 1016.6
20260508010107 71 348 7.0 13.0 0.00 0.00 0.00 29 1016.7
20260508004529 72 340 9.0 14.0 0.00 0.00 0.00 29 1016.6
20260508003035 72 344 9.0 16.0 0.00 0.00 0.00 28 1016.5
20260508000108 73 326 10.0 20.0 0.00 0.00 0.00 27 1016.4
20260507233111 74 349 9.0 16.0 0.00 0.00 0.00 28 1016.5
20260507231607 74 346 7.0 13.0 0.00 0.00 0.00 31 1016.6
20260507230034 74 28 7.0 16.0 0.00 0.00 0.00 32 1016.8
20260507221535 72 31 7.0 13.0 0.00 0.00 0.00 34 1017.3